Torna al catalogo

NAVSTAR 80

USA 309

AttivoNavigazioneHEO
NORAD 46826·PAYLOAD·🇺🇸 United States

Lanciato Nov 5, 2020 da Cape Canaveral Space Force Station

Loading…

Prossimi Passaggi (prossime 24 ore)

TLE

AggiornatoSource: CelesTrak SupGP

Epoca: Sep 17, 2026, 16:38 UTC

1 46826C 20078A   26260.69312500  .00000000  00000+0  00000+0 0  2604
2 46826  53.9678 207.0298 0076166 208.3932 288.7271  2.00565241    18

Traccia NAVSTAR 80 in tempo reale con AllMySat

Download on the App Store